Location: Allos
(44.2333°N, 6.6333°E)
Time: 16:57:22
(UTC+00:00)

Landsat 5 - Pass Details

Date: 01 December 2020
Orbit: 528 x 654 km, 98.2° (Epoch: 22 January)

Event Time Altitude Azimuth Distance (km) Brightness Sun altitude
Rises 16:54:24 0° 9° (N) 2,946 6.7 -10.3°
Reaches altitude 10° 16:56:37 10° 6° (N) 2,046 6.0 -10.7°
Maximum altitude 17:01:00 58° 288° (WNW) 761 4.3 -11.4°
Drops below altitude 10° 17:05:26 10° 209° (SSW) 2,057 7.0 -12.2°
Sets 17:07:40 0° 206° (SSW) 2,964 7.8 -12.5°
